• In Italy
  • List of Countries
  • For 7 days
  • Water Temperature
  • Satellite Maps
  • Weather Map
  • Weather Widgets
  • user-avatar
    Login

    Hourly Weather Barisal

    Today, 19 October, Thursday

    Time Temperature Precipitation Wind Pressure Humidity
    00:00 +29°C° 0 mm 3 mps 755 mmHg 85%
    01:00 +29°C° 0.7 mm 4 mps 754 mmHg 85%
    02:00 +29°C° 0.7 mm 4 mps 754 mmHg 85%
    03:00 +28°C° 0.7 mm 4 mps 754 mmHg 85%
    04:00 +28°C° 1.7 mm 4 mps 754 mmHg 84%
    05:00 +28°C° 1.7 mm 5 mps 754 mmHg 84%
    06:00 +28°C° 0 mm 4 mps 754 mmHg 85%
    07:00 +29°C° 1.2 mm 5 mps 755 mmHg 82%
    08:00 +30°C° 1.2 mm 6 mps 755 mmHg 79%
    09:00 +32°C° 1.2 mm 6 mps 755 mmHg 76%
    10:00 +32°C° 1.1 mm 6 mps 755 mmHg 74%
    11:00 +33°C° 1.1 mm 6 mps 755 mmHg 72%
    12:00 +33°C° 0 mm 6 mps 755 mmHg 70%
    13:00 +33°C° 0.8 mm 6 mps 754 mmHg 72%
    14:00 +32°C° 0.8 mm 5 mps 754 mmHg 74%
    15:00 +32°C° 0.8 mm 5 mps 753 mmHg 76%
    16:00 +30°C° 1.8 mm 5 mps 753 mmHg 80%
    17:00 +29°C° 1.8 mm 5 mps 753 mmHg 85%
    18:00 +28°C° 1.8 mm 5 mps 754 mmHg 89%
    19:00 +28°C° 4.3 mm 6 mps 754 mmHg 90%
    20:00 +28°C° 4.3 mm 6 mps 754 mmHg 91%
    21:00 +28°C° 4.3 mm 7 mps 755 mmHg 91%
    22:00 +28°C° 4.2 mm 7 mps 755 mmHg 92%
    23:00 +28°C° 4.2 mm 7 mps 755 mmHg 92%

    Tomorrow, 20 October, Friday

    Time Temperature Precipitation Wind Pressure Humidity
    00:00 +28°C° 4.2 mm 7 mps 755 mmHg 93%
    01:00 +28°C° 3.4 mm 7 mps 755 mmHg 93%
    02:00 +28°C° 3.4 mm 8 mps 754 mmHg 92%
    03:00 +28°C° 3.4 mm 8 mps 754 mmHg 92%
    04:00 +28°C° 5.7 mm 8 mps 754 mmHg 92%
    05:00 +28°C° 5.7 mm 8 mps 754 mmHg 92%
    06:00 +28°C° 5.7 mm 9 mps 754 mmHg 92%
    07:00 +28°C° 4.3 mm 9 mps 755 mmHg 92%
    08:00 +28°C° 4.3 mm 9 mps 755 mmHg 91%
    09:00 +28°C° 4.3 mm 9 mps 756 mmHg 91%
    10:00 +28°C° 3.3 mm 8 mps 756 mmHg 91%
    11:00 +28°C° 3.3 mm 8 mps 756 mmHg 91%
    12:00 +28°C° 3.3 mm 8 mps 755 mmHg 91%
    13:00 +28°C° 2.1 mm 8 mps 755 mmHg 90%
    14:00 +28°C° 2.1 mm 8 mps 754 mmHg 89%
    15:00 +29°C° 2.1 mm 8 mps 754 mmHg 89%
    16:00 +28°C° 1.4 mm 7 mps 754 mmHg 89%
    17:00 +28°C° 1.4 mm 7 mps 754 mmHg 90%
    18:00 +28°C° 1.4 mm 7 mps 754 mmHg 91%
    19:00 +28°C° 1 mm 6 mps 755 mmHg 91%
    20:00 +28°C° 1 mm 6 mps 755 mmHg 91%
    21:00 +28°C° 1 mm 6 mps 755 mmHg 91%
    22:00 +28°C° 1 mm 6 mps 755 mmHg 91%
    23:00 +28°C° 1 mm 6 mps 755 mmHg 91%

    Day after tomorrow, 21 October, Saturday

    Time Temperature Precipitation Wind Pressure Humidity
    00:00 +27°C° 1 mm 6 mps 755 mmHg 91%
    01:00 +27°C° 0.6 mm 6 mps 754 mmHg 91%
    02:00 +27°C° 0.6 mm 6 mps 754 mmHg 91%
    03:00 +27°C° 0.6 mm 6 mps 753 mmHg 91%
    04:00 +27°C° 0.7 mm 6 mps 753 mmHg 91%
    05:00 +27°C° 0.7 mm 6 mps 753 mmHg 90%
    06:00 +28°C° 0.7 mm 7 mps 753 mmHg 89%
    07:00 +28°C° 0.9 mm 7 mps 754 mmHg 88%
    08:00 +28°C° 0.9 mm 8 mps 754 mmHg 87%
    09:00 +29°C° 0.9 mm 8 mps 754 mmHg 86%
    10:00 +29°C° 0.8 mm 9 mps 754 mmHg 84%
    11:00 +31°C° 0.8 mm 9 mps 753 mmHg 83%
    12:00 +31°C° 0.8 mm 10 mps 753 mmHg 81%
    13:00 +31°C° 1.4 mm 10 mps 752 mmHg 82%
    14:00 +29°C° 1.4 mm 10 mps 752 mmHg 84%
    15:00 +29°C° 1.4 mm 9 mps 751 mmHg 85%
    16:00 +28°C° 1.2 mm 9 mps 751 mmHg 87%
    17:00 +28°C° 1.2 mm 8 mps 751 mmHg 88%
    18:00 +28°C° 1.2 mm 8 mps 751 mmHg 90%
    19:00 +28°C° 0.8 mm 8 mps 752 mmHg 90%
    20:00 +28°C° 0.8 mm 8 mps 752 mmHg 90%
    21:00 +28°C° 0.8 mm 8 mps 753 mmHg 90%
    22:00 +27°C° 0.8 mm 7 mps 753 mmHg 91%
    23:00 +27°C° 0.8 mm 7 mps 752 mmHg 92%

    22 October, Sunday

    Time Temperature Precipitation Wind Pressure Humidity
    00:00 +27°C° 0.8 mm 6 mps 752 mmHg 92%
    01:00 +26°C° 0.3 mm 6 mps 752 mmHg 93%
    02:00 +26°C° 0.3 mm 5 mps 752 mmHg 93%
    03:00 +25°C° 0.3 mm 5 mps 751 mmHg 94%
    04:00 +25°C° 0 mm 4 mps 751 mmHg 94%
    05:00 +25°C° 0 mm 4 mps 752 mmHg 94%
    06:00 +23°C° 0 mm 4 mps 752 mmHg 94%
    07:00 +25°C° 0 mm 4 mps 753 mmHg 91%
    08:00 +26°C° 0 mm 4 mps 753 mmHg 89%
    09:00 +27°C° 0 mm 4 mps 754 mmHg 86%
    10:00 +27°C° 0 mm 4 mps 754 mmHg 85%
    11:00 +27°C° 0 mm 4 mps 754 mmHg 85%
    12:00 +28°C° 0 mm 4 mps 753 mmHg 85%
    13:00 +28°C° 0 mm 3 mps 753 mmHg 84%
    14:00 +28°C° 0 mm 3 mps 753 mmHg 84%
    15:00 +28°C° 0 mm 3 mps 752 mmHg 83%
    16:00 +28°C° 0 mm 3 mps 752 mmHg 84%
    17:00 +27°C° 0 mm 3 mps 753 mmHg 85%
    18:00 +27°C° 0 mm 3 mps 753 mmHg 86%
    19:00 +26°C° 0 mm 3 mps 754 mmHg 88%
    20:00 +26°C° 0 mm 3 mps 754 mmHg 89%
    21:00 +25°C° 0 mm 3 mps 755 mmHg 91%
    22:00 +25°C° 0 mm 3 mps 755 mmHg 92%
    23:00 +24°C° 0 mm 3 mps 755 mmHg 94%

    23 October, Monday

    Time Temperature Precipitation Wind Pressure Humidity
    00:00 +24°C° 0 mm 3 mps 755 mmHg 95%
    01:00 +24°C° 0 mm 3 mps 754 mmHg 96%
    02:00 +22°C° 0 mm 3 mps 754 mmHg 96%
    03:00 +23°C° 0 mm 2 mps 754 mmHg 97%
    04:00 +23°C° 0 mm 2 mps 754 mmHg 97%
    05:00 +23°C° 0 mm 2 mps 755 mmHg 97%
    06:00 +21°C° 0 mm 2 mps 755 mmHg 97%
    07:00 +24°C° 0 mm 2 mps 756 mmHg 93%
    08:00 +25°C° 0 mm 2 mps 756 mmHg 88%
    09:00 +27°C° 0 mm 2 mps 757 mmHg 83%
    10:00 +28°C° 0 mm 2 mps 756 mmHg 79%
    11:00 +29°C° 0 mm 2 mps 756 mmHg 75%
    12:00 +31°C° 0 mm 3 mps 756 mmHg 70%
    13:00 +31°C° 0 mm 2 mps 755 mmHg 70%
    14:00 +31°C° 0 mm 2 mps 755 mmHg 70%
    15:00 +31°C° 0 mm 2 mps 754 mmHg 70%
    16:00 +30°C° 0 mm 2 mps 754 mmHg 74%
    17:00 +29°C° 0 mm 2 mps 755 mmHg 77%
    18:00 +28°C° 0 mm 2 mps 755 mmHg 81%
    19:00 +27°C° 0 mm 2 mps 756 mmHg 82%
    20:00 +27°C° 0 mm 2 mps 756 mmHg 84%
    21:00 +26°C° 0 mm 2 mps 757 mmHg 85%
    22:00 +26°C° 0 mm 2 mps 757 mmHg 86%
    23:00 +25°C° 0 mm 2 mps 757 mmHg 88%

    24 October, Tuesday

    Time Temperature Precipitation Wind Pressure Humidity
    00:00 +25°C° 0 mm 2 mps 757 mmHg 89%
    01:00 +25°C° 0 mm 2 mps 757 mmHg 90%
    02:00 +25°C° 0 mm 2 mps 757 mmHg 91%
    03:00 +24°C° 0 mm 2 mps 757 mmHg 92%
    04:00 +24°C° 0 mm 1 mps 757 mmHg 92%
    05:00 +24°C° 0 mm 1 mps 757 mmHg 92%
    06:00 +24°C° 0 mm 1 mps 758 mmHg 93%
    07:00 +26°C° 0 mm 1 mps 758 mmHg 86%
    08:00 +27°C° 0 mm 1 mps 759 mmHg 80%
    09:00 +29°C° 0 mm 1 mps 759 mmHg 74%
    10:00 +30°C° 0 mm 1 mps 759 mmHg 68%
    11:00 +31°C° 0 mm 2 mps 758 mmHg 61%
    12:00 +32°C° 0 mm 2 mps 758 mmHg 55%
    13:00 +32°C° 0 mm 2 mps 757 mmHg 56%
    14:00 +32°C° 0 mm 2 mps 757 mmHg 56%
    15:00 +32°C° 0 mm 2 mps 756 mmHg 57%
    16:00 +31°C° 0 mm 1 mps 756 mmHg 61%
    17:00 +29°C° 0 mm 1 mps 757 mmHg 65%
    18:00 +28°C° 0 mm 1 mps 757 mmHg 68%
    19:00 +27°C° 0 mm 1 mps 757 mmHg 70%
    20:00 +27°C° 0 mm 1 mps 758 mmHg 71%
    21:00 +26°C° 0 mm 1 mps 758 mmHg 72%
    22:00 +26°C° 0 mm 1 mps 758 mmHg 73%
    23:00 +26°C° 0 mm 1 mps 758 mmHg 74%
    Show more